Location: Domont
(49.0278°N, 2.3264°E)
Time: 01:15:01
(UTC+00:00)

Orbus 7S? - Pass Details

Date: 02 June 2022
Orbit: 340 x 6374 km, 56.9° (Epoch: 04 July)

Event Time Altitude Azimuth Distance (km) Brightness Sun altitude
Rises 02:56:05 0° 276° (W) 6,237 8.3 -7.5°
Reaches altitude 10° 02:59:09 10° 279° (W) 5,751 8.1 -7.1°
Maximum altitude 03:21:05 73° 7° (N) 5,345 8.4 -4.6°
Drops below altitude 10° 04:03:44 10° 96° (E) 9,718 10.5 1.0°
Sets 04:11:08 0° 100° (E) 10,372 10.6 2.0°
